Погода в Гранкине

Россия / Орловская область     52°26′00″N   35°41′17″E
темп.,
°C
ветер,
м/с
пор.,
м/с
влажн.,
%
обл.,
%
осадки,
мм/ч
давл.,
гПа
погр.,
м
24 июля, сб
сб2400:00+16з368170 0.1 1012103
03:00+16сз368384 0.3 1012120
06:00+15сз359211 0.4 1012116
09:00+19с35710 0.4 1013597
12:00+22с564836 0.0 10141805
15:00+23ссз46430 0.0 10141956
18:00+22с45490 0.0 10151357
21:00+16всв336361 0.0 101741
25 июля, вс
вс2500:00+17вюв235870 0.0 101857
03:00+16вюв1159100 0.0 101914
06:00+16юв1163100 0.0 102011
09:00+17в1262100 0.0 1021154
12:00+20ююв1254100 0.0 1022384
15:00+24ю11430 0.0 10211331
18:00+23сз11440 0.0 10211576
21:00+20всв3555100 0.0 102296
26 июля, пн
пн2600:00+19вюв3752100 0.0 1023168
03:00+18юв3552100 0.0 1024121
06:00+17юв2356100 0.0 102466
09:00+20вюв345188 0.0 1025309
12:00+24вюв223987 0.0 10251547
15:00+25св213869 0.0 10241843
18:00+23св355125 0.0 1023253
21:00+18в33555 0.0 102428
27 июля, вт
вт2700:00+17вюв22541 0.0 102413
03:00+16вюв23568 0.0 102420
06:00+16вюв22616 0.0 102416
09:00+22в22487 0.0 1024308
12:00+25вюв23385 0.0 10241575
15:00+27вюв11359 0.0 10222190
18:00+26сз013916 0.0 10221934
21:00+20св22565 0.0 102215
28 июля, ср
ср2800:00+18в22570 0.0 102216
03:00+17ююв33630 0.0 102131
06:00+17ю34645 0.0 102065
09:00+23ю35494 0.0 1019362
12:00+27ю55396 0.0 10181536
15:00+28ююз5636100 0.0 10162103
18:00+25ююв2353100 0.0 101495
21:00+19зсз1176100 0.0 101421